Location: Colle Pacifico
(43.5333°N, 13.3167°E)
Time: 20:54:30
(UTC+00:00)

SL-16 R/B - Pass Details

Date: 07 June 2020
Orbit: 986 x 1006 km, 99.5° (Epoch: 11 July)

Event Time Altitude Azimuth Distance (km) Brightness Sun altitude
Exits shadow 01:55:27 18° 223° (SW) 2,231 3.7 -13.1°
Maximum altitude 01:58:44 27° 266° (W) 1,793 3.5 -12.7°
Drops below altitude 10° 02:03:54 10° 323° (NW) 2,759 5.0 -12.1°
Sets 02:06:48 0° 335° (NNW) 3,715 5.9 -11.7°
